Theta_e
326 328 327 327 327 326 327 328 327 324 319 318 318 318 319 322 322 316 310 310 314 319 321 320 317 313 310 307 305 305 306 311 316 318 318 317 316 315 315 316 317 318 319 319 320 320 320 321 322 322 323 324 321 321 322 321 320 320 319 318 317 317 316 315 315 317 317 315 313 311 310 309 309 310 309 308 308 309 309 309 309 309 309 309 310
326 327 327 328 328 327 328 328 327 325 320 319 321 320 320 322 321 317 313 310 313 319 321 320 319 318 315 311 307 306 306 309 314 317 316 312 309 310 314 316 317 318 318 319 319 319 319 320 320 321 323 323 322 321 321 320 319 319 319 319 318 318 317 315 315 316 315 313 312 312 310 309 310 311 310 309 309 309 310 309 309 310 310 310 310
329 328 327 329 329 328 329 329 328 326 321 320 322 323 322 322 321 319 317 314 315 320 321 321 320 319 318 314 309 307 307 307 311 314 312 308 307 309 314 316 317 318 318 318 318 319 320 319 318 319 320 320 321 321 321 320 319 319 319 319 319 319 318 317 316 316 315 313 313 313 311 310 311 311 311 311 310 310 311 310 310 311 311 311 311
330 330 329 329 330 330 329 329 329 326 323 321 322 323 322 322 321 321 320 318 318 320 320 319 320 319 317 314 309 307 306 305 308 310 310 311 311 312 314 316 317 318 318 317 318 319 319 319 319 318 318 319 320 320 320 320 320 319 319 320 320 320 319 318 317 317 316 315 314 313 312 312 312 312 312 312 311 311 311 311 311 311 311 311 311
330 330 330 330 330 330 329 329 329 327 324 323 323 323 321 322 322 322 320 319 318 318 317 317 319 319 317 314 310 307 305 305 307 309 310 312 313 313 314 315 316 317 316 316 317 317 318 319 319 319 319 320 320 320 320 319 319 319 319 319 319 319 318 318 318 317 317 316 315 314 313 313 313 313 312 312 312 312 312 312 312 312 311 311 311
330 330 330 330 330 329 328 328 328 326 324 324 324 323 322 322 322 321 320 319 318 315 313 312 314 316 317 315 311 308 306 307 309 309 309 310 311 311 312 313 314 315 315 315 316 316 316 316 316 317 319 319 320 320 319 319 318 318 318 317 317 318 317 317 318 318 318 317 315 315 315 314 314 313 312 313 313 313 313 314 313 313 313 312 311
329 329 329 329 329 328 327 326 326 325 324 324 324 323 322 321 322 320 319 318 317 315 312 308 309 313 316 315 311 308 308 309 309 310 310 310 310 310 310 311 313 314 315 317 318 317 317 316 314 314 316 317 318 317 316 316 316 316 317 316 316 317 317 317 318 319 318 317 316 316 316 315 315 314 313 313 314 313 314 314 313 313 313 312 311
328 329 329 328 327 327 326 326 325 325 324 323 323 323 322 321 321 320 318 318 316 315 312 308 308 313 315 314 310 307 308 309 310 311 312 312 311 311 312 313 315 315 317 318 318 318 319 318 318 318 318 317 317 317 316 316 317 317 317 316 316 316 317 319 319 319 319 318 317 316 316 315 315 315 314 313 314 314 314 314 314 314 313 313 312
327 328 328 327 327 327 326 325 325 325 324 322 322 323 322 321 320 318 317 317 316 315 313 310 308 309 310 310 308 306 308 311 311 312 315 315 314 314 314 315 317 318 319 319 318 318 319 319 319 319 319 318 317 317 317 318 318 319 319 318 317 317 318 319 319 319 319 319 317 316 315 315 316 315 315 314 314 315 315 315 315 315 314 313 312
327 327 327 327 327 327 326 325 325 324 323 323 323 322 322 321 319 317 316 316 314 313 312 310 307 306 307 308 307 306 308 310 310 310 312 314 316 317 315 316 318 319 319 319 319 318 319 320 319 318 318 318 318 317 317 317 317 318 318 318 318 318 318 319 319 319 319 319 318 316 315 316 315 315 316 315 314 314 315 315 315 315 314 313 312
326 326 326 326 326 326 325 325 325 323 322 323 323 322 322 321 320 317 316 317 315 312 311 309 307 307 309 310 307 307 308 308 308 308 309 310 314 318 319 320 319 319 320 321 321 320 320 320 319 318 318 318 317 318 318 317 317 317 317 317 317 317 318 318 318 318 318 317 317 316 316 316 315 315 316 315 314 314 315 315 315 315 314 313 313
324 324 325 325 325 325 324 324 324 323 322 320 321 322 322 320 319 316 315 317 317 315 313 311 308 308 310 310 309 309 309 309 310 310 310 311 313 317 322 323 321 321 321 321 322 323 322 321 320 319 318 318 317 317 317 317 317 317 317 317 317 317 317 317 317 317 317 317 316 316 316 316 315 315 315 315 315 314 314 315 315 315 314 314 313
323 323 323 322 322 323 322 322 322 323 322 320 320 322 321 318 316 312 311 315 317 316 315 314 312 310 310 309 309 311 311 311 311 311 312 313 313 316 321 323 323 322 323 322 323 324 324 323 322 321 319 318 317 317 317 317 317 317 317 317 318 318 317 316 317 317 316 316 316 316 316 316 316 316 316 315 314 314 314 314 315 315 314 314 313
322 322 322 321 320 320 321 321 321 322 321 321 321 321 320 318 316 312 310 311 314 316 318 318 317 315 313 312 313 314 313 313 313 311 311 313 315 317 319 321 322 322 323 323 323 323 324 323 323 322 322 321 318 317 317 317 318 318 317 317 317 317 317 317 317 317 317 316 316 317 317 316 317 317 316 315 313 313 314 314 315 315 314 313 312
321 322 322 321 320 319 320 320 320 321 320 320 320 320 319 318 317 315 312 311 311 313 317 319 319 317 316 315 315 315 314 314 313 313 313 314 316 318 319 319 319 319 320 321 321 321 322 321 321 321 321 322 320 318 317 317 318 319 319 318 318 318 317 317 317 318 318 317 316 317 317 317 317 316 316 314 313 314 315 315 315 315 313 313 313
321 321 321 321 320 319 319 320 320 320 320 320 319 320 319 318 316 315 313 312 313 313 315 319 319 318 317 315 315 315 315 315 315 314 314 316 317 319 319 319 318 318 318 319 319 320 320 320 320 320 320 321 320 318 318 318 318 319 320 320 319 318 317 317 318 318 318 318 317 316 316 316 316 315 315 315 314 315 315 315 315 314 313 313 311
319 319 319 319 320 319 319 320 320 320 319 319 319 319 319 318 317 316 315 315 315 315 316 319 319 319 317 316 317 317 316 316 316 315 316 317 318 319 319 319 319 319 319 319 319 320 320 320 320 320 319 320 319 318 318 318 317 317 319 320 319 317 317 317 318 318 318 318 317 317 317 316 316 315 315 315 315 315 314 314 314 312 311 310 308
316 317 317 318 318 318 318 318 318 318 318 318 318 319 319 319 318 318 318 318 318 317 318 320 319 319 318 317 318 319 318 317 318 317 317 317 318 318 319 319 319 319 319 319 318 319 320 319 319 319 319 319 319 318 318 317 316 316 318 319 319 318 317 318 318 319 318 318 318 318 318 318 316 315 314 314 314 314 312 312 310 308 307 307 307
312 313 313 314 315 316 316 316 316 317 317 317 318 319 319 319 319 318 319 319 319 319 319 319 319 319 319 318 318 318 318 318 318 318 318 318 318 319 319 318 319 319 319 319 319 318 319 319 319 319 319 319 318 318 317 316 315 316 318 319 319 318 318 318 318 318 318 317 317 317 316 314 312 311 310 310 310 309 308 308 307 306 306 306 306
308 309 309 310 311 312 313 314 314 315 315 315 315 316 317 318 318 318 318 318 318 318 317 318 318 318 318 318 318 318 318 317 317 317 317 317 317 318 318 319 319 319 320 320 320 319 319 320 319 319 318 317 317 316 316 316 315 317 318 319 319 318 318 318 318 317 317 316 314 312 310 308 307 307 307 307 306 305 305 305 305 305 305 306 305
306 306 307 307 308 308 309 310 311 312 312 312 312 312 313 314 314 315 316 315 316 315 315 315 316 316 316 316 317 317 317 316 316 317 317 317 317 317 317 317 318 318 318 317 318 318 319 318 318 317 317 316 317 316 316 316 316 317 318 318 318 318 317 317 316 315 314 312 310 308 307 307 306 306 306 306 305 305 305 304 303 302 302 303 303
306 306 306 306 306 306 306 307 307 308 308 308 309 309 310 310 311 311 312 312 313 313 312 312 313 313 314 314 315 314 314 314 315 316 316 315 315 316 315 315 315 316 315 314 314 316 316 316 316 316 316 316 316 316 316 316 316 317 317 317 317 316 316 316 314 312 311 309 307 307 307 307 306 306 306 306 305 305 305 304 302 300 299 300 300
307 307 308 308 308 307 307 307 307 307 307 307 307 307 307 308 308 309 309 309 309 310 311 310 310 310 311 311 312 311 311 312 312 313 313 313 313 313 313 313 314 314 314 314 314 314 314 314 315 315 315 315 315 315 315 316 316 316 316 317 316 315 315 315 312 310 308 307 307 307 306 306 306 306 305 306 306 306 304 302 300 299 298 298 298
302 303 305 307 308 308 308 308 308 308 307 307 307 306 306 305 306 306 307 307 307 307 307 307 307 307 307 308 308 308 308 309 309 310 310 311 311 312 312 312 312 312 312 312 313 313 313 313 313 312 313 313 314 314 314 314 314 315 315 316 316 315 314 313 311 309 308 307 307 307 306 306 306 305 305 306 306 305 302 300 299 298 298 297 297
297 297 298 300 302 303 304 305 305 304 303 304 304 303 303 303 303 303 303 304 304 304 305 304 305 305 305 305 305 305 306 306 306 307 308 308 309 310 310 310 309 309 310 310 310 311 311 312 311 312 312 312 313 313 313 313 313 312 312 313 314 315 314 311 309 308 308 307 306 306 306 305 304 304 305 306 305 302 300 299 298 297 297 296 296
296 296 296 296 297 297 298 299 299 298 298 298 298 299 299 299 300 300 300 300 300 301 301 301 301 301 301 301 302 302 302 302 303 303 304 304 304 305 306 306 307 307 307 307 308 308 309 310 310 311 311 311 311 311 311 311 312 311 310 309 309 311 312 311 308 307 307 306 306 305 305 304 304 304 305 303 301 299 298 298 297 296 296 295 295
295 295 296 296 296 296 296 296 296 296 296 296 296 296 296 297 297 297 297 297 297 297 297 297 297 297 297 297 298 298 298 298 298 298 298 298 299 299 300 300 301 302 302 303 303 304 305 306 307 307 307 307 307 307 307 308 308 309 309 308 307 307 309 310 309 307 306 305 305 304 304 305 305 304 301 299 298 298 297 296 295 295 294 294 294
295 295 295 295 295 295 295 296 296 296 296 296 296 296 296 296 296 296 296 296 296 296 296 296 296 296 296 296 296 296 296 296 296 297 296 296 297 297 297 297 297 297 297 298 299 299 300 301 302 302 303 303 304 304 305 306 306 306 306 307 307 307 307 308 309 309 306 305 304 304 304 305 304 301 298 298 297 297 296 295 295 295 295 294 295
296 296 296 296 296 296 296 296 295 295 295 295 295 295 295 295 295 295 295 295 295 295 295 295 295 295 295 296 295 296 295 296 296 296 296 296 296 297 297 297 296 296 296 296 296 297 297 297 298 299 300 301 302 304 305 306 306 306 305 305 306 308 308 308 310 309 307 305 304 304 305 304 302 300 298 298 297 296 297 297 297 297 296 295 295
296 296 296 296 296 296 296 296 296 296 296 295 295 295 294 294 294 294 295 295 295 295 295 295 295 295 294 294 295 295 295 295 295 295 295 295 296 296 296 296 297 296 296 296 296 296 296 296 297 299 301 303 305 306 306 307 307 306 304 303 304 306 307 308 308 308 306 305 304 304 304 302 301 299 298 297 297 297 298 298 298 298 297 295 294
297 296 295 295 295 296 296 296 295 295 295 295 295 295 294 294 294 294 294 294 294 294 294 294 294 294 294 294 294 294 294 294 294 294 294 294 294 295 295 296 296 296 296 296 296 296 298 300 301 302 303 304 304 304 304 305 305 304 303 303 304 305 305 306 306 306 305 304 304 304 302 300 299 298 298 298 298 299 299 298 298 297 295 293 293
297 296 295 295 295 295 295 294 294 294 293 293 294 295 295 295 294 294 294 294 294 294 294 295 295 295 294 294 294 294 294 294 294 294 294 294 294 294 294 295 295 296 296 296 296 297 301 303 303 303 303 303 303 303 302 302 303 303 303 303 303 304 304 305 305 305 304 304 303 302 300 299 298 298 298 299 299 299 298 297 297 295 293 292 292
296 296 296 295 295 295 294 293 293 293 293 293 293 293 293 294 294 294 294 294 294 294 294 295 295 295 295 295 295 295 295 294 294 295 295 295 295 295 295 295 296 296 296 296 298 300 302 303 302 302 303 303 303 303 302 302 302 302 302 302 302 303 304 304 305 305 304 303 302 300 299 298 298 298 299 299 298 297 296 295 294 293 291 291 292
295 295 296 296 296 295 295 294 293 293 293 293 293 293 293 293 294 295 295 295 295 295 295 294 294 294 294 294 294 294 295 295 295 296 296 296 296 296 296 296 297 297 297 298 300 301 301 301 301 302 302 302 302 302 302 302 302 302 301 301 301 302 303 304 304 303 302 300 299 299 298 298 299 299 299 298 297 296 294 293 292 291 291 292 292
295 295 295 296 296 296 295 295 294 294 293 292 292 293 293 294 294 295 295 295 294 295 295 295 294 293 293 293 294 294 295 296 297 297 297 297 297 297 297 298 298 299 299 299 300 300 300 300 301 301 301 301 301 301 301 301 301 301 301 300 301 302 302 302 302 301 300 299 298 298 298 299 299 298 297 297 296 295 293 292 292 291 291 291 291
296 296 296 295 295 295 295 295 295 293 292 292 292 293 293 293 294 294 295 295 294 294 295 295 295 294 294 294 294 295 295 296 296 296 296 296 296 296 297 298 298 299 299 299 299 299 299 299 299 299 300 300 300 300 300 300 300 300 300 300 300 301 301 300 300 299 299 298 298 298 299 298 297 297 296 295 294 293 292 292 292 291 291 290 291
296 296 295 295 295 295 294 294 294 293 292 292 292 293 293 293 293 294 295 294 294 294 294 294 294 294 295 295 295 295 295 296 296 296 296 296 296 297 297 298 298 298 298 298 298 298 298 298 298 298 298 298 299 299 299 299 299 299 299 299 299 300 300 299 299 298 298 298 298 298 298 297 296 296 295 293 292 291 291 291 291 291 290 289 289
295 295 295 295 295 294 293 293 292 292 292 292 293 293 293 292 293 294 294 294 294 294 294 294 294 294 294 295 295 295 296 295 296 296 296 296 296 297 297 297 297 297 297 297 297 297 297 297 298 298 298 298 298 298 298 298 298 299 299 298 298 298 298 298 298 298 298 298 298 297 296 296 295 293 292 291 291 292 291 291 290 291 290 290 290
294 294 294 294 294 293 293 292 292 291 291 292 293 293 293 293 293 293 294 294 294 294 294 294 294 294 294 294 295 295 295 295 296 296 296 296 296 296 296 297 297 297 297 297 297 297 297 297 297 298 298 299 298 298 298 298 298 298 298 298 298 297 297 297 297 298 298 298 297 296 295 294 293 292 291 292 292 291 291 290 290 291 292 292 292
294 294 293 293 294 293 293 292 292 291 291 292 293 293 293 293 293 293 293 293 293 293 294 294 294 294 294 294 295 296 295 295 295 296 296 296 296 296 297 297 297 297 297 297 297 297 297 297 297 298 298 299 298 298 298 298 297 297 298 298 297 296 297 297 297 298 298 297 296 294 293 293 293 292 292 292 292 291 291 290 290 291 291 292 292
295 294 293 293 294 294 294 293 292 292 291 292 293 293 293 293 293 293 293 293 293 293 293 293 293 294 294 295 295 296 295 295 295 296 296 296 296 297 297 297 297 297 297 297 297 298 297 297 297 298 298 298 298 298 298 298 297 296 297 298 297 296 297 297 297 297 297 296 295 293 293 293 292 292 292 292 291 291 291 291 291 291 291 291 291
296 295 295 294 295 295 295 294 293 293 293 292 292 292 293 293 293 293 293 293 293 293 293 293 293 294 295 295 295 295 294 294 295 296 297 297 297 297 297 297 297 297 297 297 297 297 297 297 297 298 298 298 298 298 298 298 297 296 296 297 297 296 296 296 297 297 296 295 293 292 292 292 291 291 291 291 290 290 291 291 291 291 291 291 291
296 296 296 295 295 295 295 294 294 293 293 292 291 292 292 293 293 293 292 293 293 293 293 293 293 293 295 295 295 294 294 295 295 296 296 296 296 296 296 296 296 296 296 297 297 297 297 297 297 297 297 297 297 297 297 297 297 297 296 296 296 296 296 296 296 296 294 293 292 292 291 291 291 291 290 290 290 291 291 291 291 291 291 291 291
296 296 296 295 295 295 295 295 294 293 292 291 291 291 292 292 293 292 292 293 293 293 293 293 293 293 294 294 294 294 294 295 295 296 296 296 295 295 295 295 295 295 295 295 295 296 296 296 296 296 296 296 296 296 296 296 296 296 296 295 295 295 295 295 295 295 293 293 292 292 292 292 291 291 290 289 289 290 290 290 290 290 291 291 291
296 296 296 295 296 296 295 295 294 294 293 293 292 292 292 292 292 292 292 292 292 293 293 293 293 293 293 293 293 293 294 294 294 295 295 295 295 295 295 295 294 294 294 294 294 295 295 295 295 295 295 295 295 295 295 295 295 295 295 295 295 295 295 295 295 294 293 293 293 292 292 292 291 290 290 289 289 289 290 290 290 290 290 290 290
296 296 296 295 296 296 295 295 295 294 294 294 293 293 292 292 292 292 292 291 292 292 292 292 292 293 293 293 293 293 293 293 293 294 294 294 294 294 294 294 294 294 294 294 294 294 294 294 294 294 294 294 294 294 294 294 294 294 294 294 294 294 294 294 294 293 293 293 292 292 291 290 289 289 289 289 289 289 290 290 290 290 290 290 290
296 296 296 296 296 296 295 295 295 295 294 294 293 293 292 292 292 292 292 291 292 292 292 292 292 293 293 292 292 292 292 293 293 293 292 292 293 293 293 293 293 293 293 293 293 293 293 293 293 293 293 293 293 293 293 293 293 293 293 293 293 293 293 292 292 292 291 291 290 289 289 289 289 289 289 289 289 289 289 290 290 290 290 290 290
296 296 296 296 296 296 296 296 295 295 295 294 294 293 292 292 292 292 292 292 292 292 292 292 292 292 292 292 292 292 292 292 292 292 292 292 292 292 292 292 292 292 292 292 292 292 293 292 292 293 293 292 292 292 292 292 292 292 292 292 291 291 291 290 290 290 289 289 288 288 288 288 289 289 289 289 289 289 289 290 290 290 290 290 290
296 296 296 296 296 296 296 296 295 295 295 295 294 293 293 292 292 292 292 292 292 292 292 292 292 292 292 292 292 292 292 292 292 292 292 292 292 292 292 292 292 292 292 292 292 292 293 293 293 293 292 292 292 292 291 291 291 291 291 291 290 290 290 289 289 289 288 288 288 288 288 288 288 288 288 289 289 289 289 289 290 290 289 290 290
296 296 296 296 296 296 295 295 295 296 295 295 294 294 293 292 292 292 291 291 292 292 292 292 292 292 292 292 291 291 291 291 291 291 291 291 291 292 292 292 292 292 292 292 293 292 292 293 293 292 292 292 291 291 290 290 290 289 289 289 289 289 289 288 288 288 288 288 288 288 288 288 288 288 289 289 289 289 289 289 289 289 289 290 290
296 295 295 295 295 295 295 295 295 295 295 295 294 294 293 292 292 292 292 291 291 292 292 292 292 292 292 291 291 291 291 291 291 290 290 290 290 291 291 291 292 292 292 292 292 292 292 292 292 291 291 290 290 289 289 289 289 289 289 289 289 289 289 289 288 288 288 288 288 288 288 289 288 288 288 288 288 288 288 288 288 288 288 289 290
Wind_Speed
23 20 20 20 20 21 19 16 14 13 13 15 16 16 16 14 13 13 13 14 17 17 15 14 13 12 11 11 10 10 11 14 14 12 11 10 10 9 9 9 9 8 9 8 8 8 9 9 11 13 14 16 18 16 14 13 10 8 8 7 7 7 6 7 9 10 10 9 10 10 11 11 11 11 11 11 11 12 12 11 10 10 9 8 7
22 20 20 21 21 21 20 17 15 14 14 16 15 14 14 15 13 13 13 14 16 16 14 13 13 12 11 11 10 10 10 13 14 12 11 10 10 11 11 10 10 9 9 8 8 9 9 9 11 13 14 15 15 13 12 11 8 7 6 6 6 5 5 6 8 9 10 10 11 11 11 11 11 11 12 12 12 13 13 12 10 10 9 8 6
21 19 19 21 22 21 20 19 17 15 15 16 16 14 14 14 13 13 13 13 14 14 14 14 13 12 12 11 11 11 11 13 14 12 11 11 11 13 13 12 11 10 9 8 8 8 9 10 10 11 12 13 12 11 10 9 7 6 5 5 5 5 5 5 7 8 9 11 11 11 12 12 11 12 12 12 13 13 12 12 11 10 11 9 7
19 18 17 19 21 20 19 19 18 16 15 15 15 14 13 14 14 13 13 13 13 13 13 14 13 12 12 12 12 13 13 14 14 13 12 12 12 13 13 12 11 9 8 8 8 7 8 9 9 10 10 11 10 9 8 8 7 6 5 4 4 5 6 6 7 8 9 11 12 11 12 12 11 12 13 13 14 13 12 12 11 11 10 9 8
16 18 18 18 19 19 18 18 18 16 14 14 14 12 12 14 14 13 13 13 13 13 14 14 14 13 12 12 12 13 14 14 14 14 14 14 13 12 11 11 10 9 8 8 7 7 6 7 7 8 8 7 7 7 6 6 6 5 5 5 5 6 7 7 8 9 10 11 12 12 12 13 12 13 14 14 14 14 13 12 12 11 11 10 11
14 17 18 17 18 19 18 18 18 17 15 14 13 12 12 14 13 12 13 13 13 13 14 15 16 14 12 11 12 13 14 15 14 14 14 14 13 12 11 10 9 8 8 7 7 6 6 6 6 7 7 6 6 7 6 7 6 6 6 6 6 7 8 8 10 11 12 12 13 13 14 14 14 15 16 15 15 15 14 13 12 12 12 13 13
15 16 17 16 16 17 17 17 17 17 18 17 15 12 12 13 12 11 12 12 12 12 13 15 16 14 11 11 12 14 15 15 14 13 13 12 11 10 9 9 8 7 7 6 6 6 5 5 5 5 6 6 6 7 7 8 7 7 8 7 7 8 9 9 11 13 14 13 14 15 15 16 16 16 16 16 15 15 15 14 14 14 14 14 14
15 14 15 14 12 12 14 17 17 16 17 17 16 14 13 13 12 12 12 11 11 11 12 14 15 14 13 12 13 15 15 14 14 12 11 10 9 8 8 7 7 7 7 6 6 6 5 4 4 4 5 6 6 7 7 7 7 6 7 8 8 9 9 9 11 14 16 15 15 15 15 16 16 16 16 17 17 16 15 15 14 14 14 15 16
14 14 14 14 12 12 13 16 18 17 16 16 17 17 16 15 13 12 12 11 10 10 11 12 14 15 15 14 14 15 15 14 13 12 11 9 8 7 7 7 7 7 7 7 6 6 5 4 4 4 5 6 7 7 7 7 7 6 7 7 8 9 9 9 11 14 16 16 16 15 16 16 17 17 17 19 19 17 16 16 15 14 15 15 17
13 13 13 13 13 13 14 17 19 19 18 18 20 20 19 17 15 13 13 11 10 11 11 11 12 12 13 13 13 14 14 14 14 13 11 9 8 7 7 7 8 8 8 8 7 7 6 5 5 5 6 6 7 8 8 8 9 9 8 8 8 9 9 10 12 13 15 17 17 16 17 17 17 18 19 19 19 17 16 17 16 15 15 14 15
9 9 10 10 10 11 14 19 21 20 19 19 20 21 21 21 19 16 13 12 11 11 11 11 11 11 10 10 10 11 12 13 13 13 12 10 9 8 7 8 8 8 9 8 8 8 7 7 7 7 7 8 8 9 9 9 10 11 11 11 11 11 12 13 13 14 15 16 16 17 18 18 17 18 19 18 19 19 19 19 17 16 15 14 14
8 7 6 6 6 8 12 18 21 20 18 19 20 21 23 22 21 18 14 12 11 11 9 9 10 10 9 8 9 9 10 12 12 12 12 11 11 10 9 8 9 9 9 9 8 8 8 8 9 9 9 9 9 10 11 11 11 12 13 14 14 14 14 15 16 16 16 17 17 18 18 18 18 19 19 18 20 22 21 19 18 18 18 16 14
8 7 8 8 7 6 9 14 18 20 20 21 22 22 21 19 18 17 15 13 11 10 9 9 9 10 9 8 9 10 10 11 13 14 13 13 13 13 11 10 10 10 10 10 9 9 9 9 9 10 12 11 11 12 13 13 13 14 15 17 17 17 17 16 18 19 19 19 19 18 18 19 18 18 20 22 23 23 22 21 20 18 18 16 13
10 9 10 11 11 10 9 11 14 17 18 20 22 21 20 20 19 20 21 19 15 10 9 10 11 11 11 10 10 11 11 12 13 14 15 14 14 14 14 14 13 12 12 12 11 11 10 10 10 11 12 13 13 14 14 15 16 16 17 19 19 19 18 17 18 19 21 22 21 20 19 19 19 19 22 24 23 23 22 20 19 18 17 17 17
14 13 12 11 12 11 10 9 10 11 12 13 16 17 17 19 21 22 25 26 20 13 10 12 14 13 12 11 12 13 13 14 15 15 16 16 15 16 16 16 16 16 16 16 15 14 14 14 14 14 13 14 15 15 15 17 17 16 16 17 17 17 18 19 19 19 20 22 23 23 21 21 23 23 23 22 21 22 21 18 18 18 18 18 19
16 15 14 13 12 11 10 9 9 9 9 9 12 13 15 18 21 21 23 23 19 15 12 12 13 13 12 11 13 15 15 16 17 17 18 18 18 17 17 17 17 18 18 18 18 17 17 17 17 17 17 16 17 18 16 17 18 16 15 15 14 16 18 18 18 19 20 22 24 25 24 23 24 24 22 22 22 23 21 19 20 20 17 15 14
14 14 14 14 13 11 10 10 9 9 9 9 10 11 12 14 16 18 19 18 16 14 13 12 11 11 12 12 12 14 15 16 16 17 18 18 18 18 17 17 18 18 17 18 18 18 19 19 19 19 19 19 20 20 18 18 19 17 15 14 14 17 18 18 19 21 21 23 24 24 24 22 22 23 23 23 23 21 19 18 19 18 14 12 12
18 17 16 16 13 11 10 10 11 10 9 8 9 9 9 9 10 11 12 12 11 11 11 10 9 9 10 12 11 11 14 14 14 14 15 16 17 18 18 17 17 18 18 18 18 19 20 21 21 20 20 20 21 21 19 18 17 15 14 13 14 16 18 18 20 22 24 26 26 25 23 22 22 23 24 22 22 22 19 16 15 15 13 11 11
21 20 20 19 17 15 13 12 12 11 10 8 8 8 8 7 8 8 8 8 8 7 7 7 8 9 10 11 10 10 12 12 13 13 14 15 16 17 17 16 16 17 17 15 16 17 18 20 21 20 20 21 22 21 18 16 14 12 12 13 14 17 18 18 19 22 24 25 25 24 22 21 22 23 23 22 22 22 20 17 14 13 12 11 11
19 18 19 18 18 17 16 15 14 14 14 13 10 9 7 5 5 4 6 6 6 5 5 4 4 5 6 7 8 8 9 9 11 12 14 15 16 16 16 15 13 13 13 11 11 12 15 16 18 18 19 20 19 18 15 13 11 10 11 13 14 16 17 15 17 21 22 22 22 21 20 20 21 22 21 22 22 21 22 20 17 13 10 9 11
15 15 15 15 15 15 15 14 13 13 14 13 12 11 10 8 6 4 2 3 3 3 2 2 2 3 4 5 6 6 7 7 8 9 11 12 13 14 15 14 13 13 13 12 11 10 10 11 14 15 15 15 14 14 13 12 11 12 13 13 14 16 16 15 16 18 21 21 20 20 20 20 21 21 21 22 22 21 21 20 19 17 15 12 10
12 11 11 11 11 12 12 12 12 12 12 12 11 11 11 10 10 8 7 5 4 4 4 3 2 1 1 3 4 5 5 5 6 8 9 9 9 10 11 10 12 12 10 8 8 7 7 10 13 14 12 12 12 13 12 12 13 14 15 15 15 16 17 17 16 17 19 20 18 19 21 21 20 21 21 22 22 21 20 19 18 18 17 15 13
7 7 6 6 7 7 8 8 8 8 9 8 8 8 8 8 8 8 7 6 5 4 4 3 3 3 1 2 3 4 3 3 4 6 8 8 8 9 9 9 9 10 8 7 7 8 9 12 14 13 12 13 13 13 13 14 14 15 17 18 18 18 18 18 19 19 20 20 20 21 21 20 20 21 21 21 22 21 20 18 17 16 15 14 13
4 4 3 2 2 2 3 3 3 3 4 3 3 3 3 3 3 3 3 3 3 2 2 2 3 3 3 3 4 5 5 7 8 8 8 9 9 10 11 11 12 12 13 13 14 14 15 16 16 16 16 16 15 15 15 16 16 18 18 19 20 21 20 20 21 21 21 20 20 19 19 19 19 19 21 22 22 20 17 16 15 13 12 11 10
4 4 3 2 2 1 1 1 1 2 1 1 0 0 0 1 1 2 3 4 4 5 5 5 5 5 6 6 7 8 9 11 12 13 13 13 14 14 15 16 16 16 17 18 20 21 21 21 22 22 21 20 19 18 18 18 19 20 20 20 22 24 24 25 25 25 25 24 20 15 15 16 17 20 23 22 19 16 15 13 12 10 9 8 8
5 4 4 4 3 3 2 2 2 1 1 0 0 1 2 2 3 4 4 5 6 6 7 7 7 7 8 9 10 12 12 13 15 16 16 16 17 17 18 19 20 20 21 22 23 24 24 24 25 25 24 23 22 21 21 21 21 21 21 21 23 26 27 26 26 28 28 25 20 17 17 18 20 21 20 17 14 14 13 11 9 8 6 5 4
5 5 5 5 5 5 4 4 4 4 3 2 2 2 1 1 1 2 2 3 4 4 5 5 6 6 7 8 9 10 11 12 14 15 16 16 17 18 19 20 21 21 22 23 24 24 24 24 24 24 24 24 23 22 23 24 23 23 23 22 23 25 26 26 26 28 26 21 18 20 22 23 23 19 14 11 11 12 10 7 5 4 3 2 1
6 7 7 7 7 8 7 7 8 7 6 6 6 5 5 5 4 3 3 2 2 1 1 1 2 3 3 4 4 5 6 8 10 11 12 13 14 15 16 18 19 19 20 21 22 23 23 23 23 23 23 22 22 21 21 22 23 24 24 24 24 25 26 26 27 27 25 23 22 24 26 26 22 17 13 11 10 9 8 7 5 3 3 2 2
9 9 9 10 10 10 10 10 10 10 10 9 9 8 8 8 7 7 6 5 5 4 3 3 2 2 2 2 3 3 4 6 7 7 8 9 9 10 11 12 14 15 17 17 18 20 21 21 20 20 20 20 19 19 20 20 21 21 22 22 23 23 24 25 25 25 25 25 26 27 28 26 22 18 16 14 12 11 9 7 5 5 5 3 3
10 10 11 11 12 11 11 11 12 11 11 11 11 11 11 11 10 9 8 7 7 7 6 5 5 5 5 6 6 6 7 8 9 9 9 9 10 10 10 10 11 12 13 14 14 16 17 17 17 17 17 17 18 18 19 20 20 19 18 18 19 20 20 21 23 24 24 24 25 26 27 25 22 20 19 17 15 12 10 8 7 7 5 3 3
9 10 11 13 13 12 11 11 11 11 10 10 10 10 11 11 10 10 9 9 9 9 9 9 9 9 9 9 10 10 11 11 12 12 12 12 12 12 12 12 12 12 12 12 12 12 12 12 12 12 12 12 12 13 13 14 15 15 14 14 16 18 18 20 23 24 24 25 26 26 26 24 23 22 20 17 15 14 12 10 8 6 4 4 5
10 11 12 13 14 13 12 11 11 10 10 10 10 9 9 9 9 9 9 9 9 9 9 9 9 10 10 10 11 11 12 13 13 14 14 14 14 14 13 13 13 13 12 12 11 10 9 9 9 9 10 11 11 11 11 11 11 11 12 14 16 17 18 20 23 24 25 27 28 28 26 24 21 19 18 17 16 15 12 10 8 6 5 6 8
10 11 11 11 11 11 11 11 11 10 10 9 9 9 9 8 8 8 8 8 8 8 9 9 9 9 9 9 10 10 10 11 11 12 12 13 13 13 13 13 12 12 11 10 9 8 8 8 9 9 10 11 11 10 10 10 9 9 10 13 16 18 19 20 22 24 26 28 28 27 25 22 19 18 18 17 15 12 10 8 6 6 6 7 8
11 12 12 11 10 9 10 10 9 9 10 9 9 9 9 9 8 9 9 9 9 9 9 10 10 11 10 10 9 8 8 8 7 8 8 8 9 10 10 11 11 10 9 8 8 8 9 9 10 10 11 12 11 11 10 9 9 9 9 10 14 19 21 22 23 25 27 26 25 24 22 20 19 18 17 16 13 10 8 6 5 5 6 7 7
9 9 10 10 9 8 8 8 8 8 9 9 10 10 10 9 9 8 8 8 9 9 8 8 10 11 11 9 7 7 6 6 5 5 6 6 6 7 7 7 8 9 8 7 8 8 8 9 10 10 11 12 12 11 10 9 8 9 8 10 15 20 23 24 25 26 26 25 24 23 20 18 17 16 15 13 11 9 7 6 6 6 7 8 8
7 6 7 8 8 8 7 7 7 7 8 9 10 10 10 10 9 8 7 7 7 8 7 7 7 8 9 8 7 6 6 5 5 6 7 7 7 7 7 6 6 7 7 7 7 7 7 8 9 9 9 10 10 9 9 9 10 10 9 11 16 21 24 27 27 27 25 23 21 19 17 15 15 14 12 9 7 6 6 6 7 7 8 8 7
6 6 6 8 8 7 7 7 7 7 8 9 9 10 11 11 10 9 9 8 8 8 7 7 7 7 7 8 7 5 6 6 5 6 7 7 7 7 7 6 6 7 7 7 7 7 7 7 8 7 8 9 9 8 8 9 11 13 13 13 16 21 26 29 27 24 22 20 17 15 15 15 13 10 8 6 5 4 5 7 7 8 8 7 4
6 6 6 7 7 8 8 8 7 7 8 8 9 10 12 12 12 11 9 9 10 9 7 7 8 7 8 9 7 5 4 5 6 7 8 9 8 7 7 7 6 7 7 7 7 7 7 7 8 8 8 8 9 10 10 9 10 13 14 14 16 20 25 27 25 22 20 17 15 15 14 12 9 7 7 6 5 6 7 7 6 6 6 5 2
6 7 6 7 7 7 8 8 7 7 7 8 9 10 11 12 12 10 8 9 10 9 8 8 8 8 9 11 10 6 5 5 5 6 7 8 9 8 7 8 7 7 6 7 7 8 7 7 8 9 8 7 7 8 8 8 7 9 10 11 13 17 22 25 25 22 17 13 14 15 12 8 7 7 6 5 6 6 7 6 5 5 5 4 4
5 5 5 6 7 7 8 8 8 8 8 8 8 8 8 9 9 9 8 9 9 9 9 8 8 9 11 12 11 10 8 7 6 7 8 9 9 9 9 10 9 7 6 7 8 8 8 8 8 8 7 6 6 7 5 4 4 4 5 5 7 14 23 27 25 19 13 12 15 13 9 6 7 7 5 5 5 6 6 5 4 5 5 5 5
4 4 4 5 6 6 6 7 8 8 8 8 7 6 6 7 7 8 8 9 8 8 8 8 8 9 11 11 11 12 12 9 8 9 9 9 9 10 11 12 12 10 8 8 7 7 8 8 7 7 7 6 6 6 4 3 2 2 2 3 6 13 22 26 21 14 11 14 15 11 7 7 8 7 5 6 6 5 5 4 4 4 4 4 4
4 4 3 3 4 4 4 4 6 6 7 7 6 6 5 6 6 7 7 8 8 7 7 7 7 8 9 9 11 13 12 9 8 11 12 11 11 13 13 15 15 14 13 12 10 9 8 8 6 6 7 6 6 6 5 2 1 1 1 2 5 10 18 22 18 12 12 15 14 11 10 10 9 8 7 6 5 4 4 5 5 4 4 4 5
4 3 3 2 2 2 2 3 4 5 5 5 5 5 5 5 6 6 6 6 6 7 7 7 7 7 9 11 13 13 11 10 11 13 14 15 16 17 17 18 19 19 19 19 18 16 15 13 12 11 10 9 8 7 7 5 2 2 3 2 2 5 10 16 16 15 15 15 14 12 12 11 9 8 6 4 4 4 5 6 5 5 5 5 5
4 3 3 4 3 2 1 2 3 4 5 5 5 5 6 5 5 5 5 4 5 5 6 7 7 7 8 10 12 14 15 16 16 16 17 18 19 19 19 19 20 20 21 20 20 20 19 19 18 18 17 17 16 16 16 15 13 12 11 9 8 7 8 12 15 16 15 14 13 12 10 9 8 5 4 5 5 6 5 5 4 4 5 5 5
5 4 4 4 3 2 1 1 1 4 6 6 5 5 5 5 4 4 4 4 3 4 5 6 6 7 8 9 11 16 19 19 18 18 17 17 18 18 18 18 18 18 18 18 17 18 18 17 17 17 18 18 19 19 20 20 19 18 17 14 13 13 13 14 14 13 11 10 9 8 7 6 5 4 4 6 6 5 4 4 4 4 4 5 4
5 5 5 4 3 3 2 1 1 2 3 3 3 3 4 4 3 3 3 4 3 3 4 4 5 6 7 7 10 14 17 17 17 17 16 15 15 16 15 15 15 15 14 14 14 14 15 15 16 16 16 16 17 17 16 16 16 15 15 13 13 12 12 11 10 9 8 8 6 5 4 4 4 5 6 6 4 3 4 6 5 4 4 4 3
5 5 5 4 4 3 3 2 3 3 2 1 1 2 2 2 2 2 3 4 4 3 3 4 4 5 5 6 7 8 11 13 15 15 15 14 13 12 12 12 13 12 11 11 11 11 12 12 13 13 13 13 12 12 12 11 10 10 9 8 8 7 7 6 6 6 5 5 4 4 4 4 4 5 5 5 3 3 3 4 4 3 3 4 3
5 5 5 5 4 4 3 4 4 4 3 1 1 1 1 1 2 1 1 2 3 3 3 3 3 3 4 4 4 5 6 7 9 10 11 11 10 9 9 9 9 9 9 9 9 9 9 9 9 9 8 8 8 7 7 7 6 5 5 4 3 3 3 2 2 2 3 3 3 4 5 5 6 6 6 5 4 3 3 3 3 3 4 4 4
5 4 4 5 5 4 4 4 4 3 3 2 2 2 1 0 1 1 1 1 1 1 2 2 2 3 3 4 4 4 4 4 5 5 6 7 7 7 7 7 7 7 7 7 8 8 8 8 8 7 6 6 5 5 5 5 4 3 2 2 1 0 1 1 2 3 3 4 5 5 6 6 7 6 6 6 5 5 4 4 4 4 4 4 5
4 4 4 5 5 5 5 4 4 4 4 3 2 2 2 1 0 0 0 1 1 1 1 1 1 2 2 3 3 3 3 4 3 3 3 3 3 3 3 3 4 4 4 4 5 6 6 7 6 6 6 5 5 5 5 5 5 4 3 2 2 2 2 3 4 4 5 5 6 6 7 7 7 7 6 6 6 5 5 5 4 4 4 5 6
4 5 5 6 6 6 6 5 5 5 4 3 3 4 4 2 1 1 1 2 2 2 1 1 1 1 1 1 2 2 3 3 3 3 3 2 1 0 1 0 0 1 2 3 3 4 5 5 5 5 5 5 5 5 5 5 5 5 5 5 5 5 5 5 5 5 5 6 6 7 7 7 7 7 7 7 6 6 6 6 6 5 4 5 6
Wind_Direction
193 194 191 186 185 185 183 178 176 177 177 175 176 179 176 172 174 172 170 178 178 174 171 169 167 167 166 163 156 152 161 167 166 162 159 156 154 150 141 135 133 129 124 124 128 129 124 122 131 139 142 147 150 149 147 142 134 128 124 118 116 119 124 138 145 151 162 163 160 169 178 173 168 172 179 182 177 169 169 176 173 166 169 177 179
193 194 190 187 186 185 184 180 178 179 178 174 175 177 175 172 174 172 169 175 178 175 174 173 171 169 166 166 163 156 157 162 162 160 160 159 152 143 138 138 136 128 121 118 119 122 121 120 130 140 145 148 150 150 150 148 145 143 137 132 133 132 134 143 147 156 169 171 169 180 187 178 172 180 188 189 181 171 174 184 176 168 179 190 200
194 196 193 190 188 188 188 185 181 180 176 174 174 175 176 174 173 174 174 175 174 176 181 179 175 172 169 170 168 163 161 161 159 157 154 149 142 138 138 138 134 127 120 114 113 117 121 125 131 141 146 145 146 150 154 156 160 166 161 157 158 159 160 161 161 166 174 180 182 187 191 185 181 186 189 188 182 174 178 186 179 179 188 185 201
197 199 198 197 194 193 194 190 185 181 176 176 178 178 178 176 174 176 179 177 174 177 184 182 177 175 173 172 171 168 167 162 157 152 147 141 138 137 137 135 132 128 125 122 119 116 120 128 135 144 149 148 151 158 162 165 171 178 184 191 197 199 194 187 186 183 181 185 189 190 193 190 186 188 187 186 186 181 184 191 186 192 199 185 200
200 203 202 203 202 200 200 194 188 184 180 181 181 180 180 177 176 178 179 180 179 179 182 180 178 178 175 173 172 169 166 162 156 152 148 142 140 138 137 137 134 133 132 128 126 127 129 137 144 153 158 160 164 170 178 185 189 198 212 221 228 233 228 213 204 201 195 192 190 190 194 192 188 190 188 187 189 188 192 199 195 198 205 200 214
200 204 203 205 206 205 201 192 184 182 186 190 187 182 183 180 177 178 178 181 182 182 182 181 179 176 172 172 170 166 164 162 158 156 152 148 147 144 142 142 139 138 136 131 132 136 139 151 163 169 173 179 187 193 203 211 214 220 226 228 227 237 244 229 211 207 206 200 192 190 194 194 191 192 192 192 193 193 196 202 201 204 210 212 228
200 202 203 202 201 203 199 188 182 184 190 192 188 183 184 182 175 175 178 181 183 182 182 181 176 171 170 171 169 166 167 166 164 163 160 158 156 153 152 151 149 150 147 144 147 143 143 158 171 178 187 194 204 213 221 227 229 227 229 229 225 233 244 235 215 209 208 205 200 197 196 196 195 196 196 196 198 200 202 205 206 209 215 220 235
200 200 202 201 200 202 199 190 188 194 196 191 183 180 183 181 173 171 175 180 182 180 180 180 175 171 171 170 170 171 171 171 171 168 167 168 165 164 165 163 165 169 166 165 167 158 154 162 164 177 196 203 208 217 222 227 232 235 238 239 234 235 238 231 219 212 208 206 205 204 201 199 200 199 198 199 203 206 208 212 214 215 219 225 237
201 199 201 205 204 199 195 190 188 191 194 190 182 179 182 181 174 171 174 175 175 172 174 178 175 173 171 167 172 176 174 175 178 174 171 175 175 176 181 181 185 188 186 186 187 179 174 181 189 201 219 225 226 228 229 228 230 234 239 244 245 243 239 232 224 216 212 212 212 210 205 204 204 202 201 202 206 209 212 218 222 220 220 226 236
205 208 208 208 206 199 191 188 187 188 193 195 189 182 181 179 174 173 176 173 168 164 165 169 170 171 171 170 177 182 182 186 190 187 184 184 186 194 200 197 196 199 202 204 206 207 208 218 231 239 244 247 247 248 247 247 245 241 242 245 247 244 241 237 230 223 220 220 219 217 214 213 210 207 208 210 211 213 214 218 222 219 214 217 233
188 198 203 204 204 199 189 184 187 190 194 197 193 186 184 181 174 172 176 173 169 164 159 160 162 166 172 177 184 191 197 201 200 199 199 196 197 203 205 203 201 203 208 211 217 224 227 234 248 257 261 260 260 258 254 255 256 254 255 256 254 250 243 239 236 232 231 229 227 225 224 225 221 215 216 216 213 214 217 220 222 220 214 212 226
149 142 145 162 180 191 186 179 179 183 189 197 199 196 194 187 172 167 174 174 169 165 163 165 169 172 175 183 196 205 210 212 210 208 208 207 205 204 203 210 211 212 217 218 221 229 234 243 254 263 267 267 268 270 268 265 264 263 263 261 260 257 249 241 236 233 234 235 235 234 232 232 229 222 218 216 215 220 224 225 224 222 222 224 228
124 125 119 115 124 155 174 171 173 180 188 197 201 200 203 198 180 174 181 180 174 175 183 188 186 189 192 197 211 218 217 217 218 217 216 218 214 207 208 217 219 219 223 224 226 230 234 242 253 264 270 270 270 272 273 273 271 269 268 265 262 258 252 244 237 234 234 236 239 240 239 237 235 228 224 226 229 231 230 228 228 226 229 235 234
109 116 118 115 118 132 149 162 175 185 191 196 198 198 207 213 205 197 198 198 200 203 204 198 194 199 205 208 218 225 223 220 221 220 221 222 219 215 217 221 223 225 228 229 232 236 239 245 250 257 264 269 272 273 275 278 278 273 270 268 264 259 252 243 238 235 235 237 240 243 242 240 238 235 235 239 240 238 236 233 231 229 230 233 231
103 105 109 115 124 134 142 149 161 172 182 193 194 192 198 205 205 204 204 206 213 227 227 210 199 199 204 211 222 228 227 226 225 224 223 223 222 223 226 228 230 233 235 236 238 242 247 252 254 257 259 262 268 272 274 278 279 274 268 266 262 257 249 241 239 237 237 238 241 242 242 241 240 240 242 243 237 233 234 230 227 230 233 235 236
97 97 100 107 115 123 132 142 152 157 162 177 185 184 187 192 194 198 204 210 222 238 241 223 208 205 211 220 230 234 232 230 229 227 226 226 227 228 231 234 236 238 240 242 244 247 252 255 258 262 264 264 267 270 272 276 276 270 264 259 254 251 246 240 239 239 239 239 240 242 243 244 244 244 243 240 235 234 236 234 235 241 240 234 237
94 96 98 99 102 109 117 124 132 137 141 158 177 184 188 191 191 194 203 215 227 237 239 231 219 216 222 223 226 233 234 232 233 233 231 231 232 233 237 240 242 244 246 248 249 252 256 257 258 262 265 266 269 273 275 275 272 264 257 251 249 251 245 238 238 242 242 242 241 242 245 246 244 242 240 240 240 239 235 234 237 237 229 224 228
93 94 94 91 92 95 98 105 113 119 127 143 159 165 169 175 178 186 198 207 214 222 230 233 224 220 226 223 218 228 236 234 235 237 237 238 240 242 245 247 250 254 256 257 259 260 260 260 261 263 266 267 270 276 278 272 265 258 251 244 243 246 244 239 240 243 241 240 239 238 240 241 239 237 236 236 237 234 225 221 224 222 217 220 226
92 92 92 91 90 90 88 90 94 97 101 109 124 139 149 159 169 183 195 197 198 203 207 213 213 215 225 227 222 232 242 241 240 242 244 246 248 250 254 257 260 264 264 264 263 261 262 264 265 264 264 266 270 274 270 262 257 254 246 240 239 244 248 248 247 248 247 245 243 241 237 235 234 232 230 229 229 227 218 210 208 214 217 217 219
92 93 94 95 95 93 92 92 93 93 93 92 94 102 113 124 145 178 200 200 205 210 200 206 224 223 231 242 240 243 249 250 251 253 254 255 256 258 262 262 261 262 261 261 263 264 266 269 268 266 265 267 268 264 253 246 248 247 242 242 246 252 259 260 253 251 251 249 247 245 240 233 229 226 224 224 223 219 215 211 206 204 205 208 217
95 95 96 98 98 96 95 94 95 95 95 93 89 89 93 96 98 98 122 164 180 193 182 197 243 250 266 276 271 269 270 269 272 274 270 268 266 265 266 265 265 267 265 260 262 269 270 265 265 266 266 264 259 250 242 240 243 242 239 241 247 254 262 265 257 250 247 244 242 239 232 225 221 219 217 216 215 214 215 217 217 211 204 202 206
99 98 98 98 97 96 96 95 94 91 91 92 90 88 90 92 93 86 77 80 87 87 92 94 94 118 263 269 275 290 288 273 272 276 275 276 275 273 276 275 274 281 285 268 257 261 262 260 264 268 267 261 255 248 244 245 247 246 244 242 242 246 253 260 259 251 246 242 235 228 225 220 215 213 213 212 213 216 220 222 224 223 219 217 216
99 101 102 99 94 94 96 94 92 90 91 93 92 91 94 96 97 95 86 82 78 73 74 77 82 97 148 258 280 302 305 271 259 265 271 279 282 283 289 290 283 287 295 284 267 262 263 266 269 268 264 262 260 257 255 253 251 252 253 252 249 245 246 254 257 251 244 239 230 223 219 213 208 208 209 213 218 222 226 226 226 229 231 234 236
80 82 91 102 93 88 89 84 79 76 78 84 85 86 93 98 104 114 123 136 153 167 172 161 155 172 206 239 262 274 277 272 269 268 271 276 278 279 283 286 285 286 288 286 283 279 275 275 276 274 271 268 265 262 262 259 256 257 259 259 256 248 241 241 245 242 235 227 220 215 210 205 204 206 209 216 223 225 227 230 231 234 240 244 246
64 59 57 57 51 40 24 9 16 27 24 12 21 67 195 205 207 208 204 205 212 219 222 218 214 222 233 240 251 261 268 273 276 276 274 272 272 272 272 273 276 278 279 278 278 278 276 276 276 276 274 273 270 267 265 263 262 262 262 262 261 257 247 237 234 234 227 217 205 198 199 197 197 205 214 221 226 227 228 232 236 240 244 245 248
70 71 72 73 75 77 75 68 68 68 67 213 237 235 229 226 228 225 227 231 234 237 242 243 244 249 254 258 262 266 269 272 275 276 277 276 275 274 274 275 276 278 278 277 276 275 273 273 273 274 274 274 275 274 272 269 267 267 266 263 263 264 260 251 241 235 230 221 208 199 201 203 207 215 222 223 219 220 225 230 234 236 239 245 261
76 83 87 91 91 89 90 93 95 93 94 100 103 107 130 162 202 215 221 231 238 245 254 258 260 263 268 270 272 274 275 274 275 276 277 278 278 278 278 278 278 279 279 279 278 276 274 274 274 275 276 277 277 277 275 274 273 273 272 268 265 266 270 267 255 241 231 222 211 207 212 220 223 221 213 203 204 212 216 213 210 216 228 259 283
90 90 89 91 91 89 86 87 88 86 85 88 92 93 94 96 94 94 101 113 120 134 178 262 275 274 276 280 281 283 284 283 282 281 280 279 278 278 279 279 279 278 277 276 277 277 276 276 277 278 279 281 280 278 274 272 273 273 271 266 263 264 267 267 260 248 235 221 214 217 222 225 220 206 194 197 209 213 208 200 201 218 247 279 283
97 95 92 89 85 81 79 78 78 78 76 75 76 78 78 78 77 77 79 83 83 81 74 62 38 16 7 343 325 321 312 305 305 305 304 300 296 292 288 286 285 284 282 281 280 280 280 281 282 283 283 283 282 279 274 270 271 274 272 266 261 260 260 259 256 249 236 223 218 222 226 222 213 206 210 217 218 215 215 219 234 253 263 273 263
94 96 99 100 93 84 80 79 77 75 72 69 65 63 62 60 56 52 49 47 45 42 36 26 14 5 358 346 336 327 318 314 314 314 313 313 313 312 311 308 303 300 299 295 289 287 288 289 290 291 290 287 285 282 278 273 271 275 279 276 269 265 261 255 250 243 232 222 221 223 221 216 211 211 213 214 215 222 233 242 248 253 258 250 233
90 93 103 110 105 94 87 84 82 79 76 73 67 58 53 47 40 34 27 20 16 12 5 357 350 344 338 331 325 320 315 312 310 309 307 305 305 305 307 308 308 308 308 305 301 298 296 295 295 296 294 292 291 289 286 281 276 276 282 283 276 268 258 247 239 231 221 215 217 219 216 213 211 210 210 214 222 232 237 238 239 239 232 223 228
95 95 102 108 105 98 92 90 89 85 82 81 77 68 59 48 37 28 20 13 8 3 357 350 342 335 329 323 317 312 308 306 303 302 302 302 302 303 304 304 306 307 307 306 306 303 298 290 287 287 286 286 288 287 283 279 273 272 276 276 272 268 259 245 233 224 217 216 217 218 215 211 209 209 214 221 226 228 228 226 225 220 216 224 237
105 105 103 98 93 91 90 89 89 88 83 77 71 65 61 56 48 40 35 30 23 17 11 3 352 342 335 330 324 317 311 306 302 301 302 304 307 310 312 311 310 308 308 310 310 304 297 290 286 284 283 283 283 279 274 270 265 264 268 269 267 265 258 244 231 223 220 222 222 218 213 210 211 216 221 221 219 218 216 215 215 217 225 240 253
113 116 112 101 89 85 86 85 85 82 75 68 62 58 56 55 56 60 61 54 42 30 18 9 3 357 349 341 336 329 322 316 310 304 304 309 313 315 317 321 322 320 323 327 319 309 301 295 290 287 284 282 279 274 271 271 268 263 259 256 257 255 246 235 228 224 222 221 219 214 212 215 218 218 216 212 209 206 205 208 218 229 239 245 250
101 107 109 104 93 85 82 80 78 75 67 61 58 59 60 60 62 66 66 57 48 41 27 9 3 3 360 357 357 351 341 335 333 334 332 327 325 328 334 343 342 337 339 337 323 312 306 297 288 282 278 277 277 274 271 269 266 263 256 248 251 250 240 230 225 223 221 218 215 214 217 219 214 208 206 205 204 198 193 206 226 237 242 243 242
87 87 94 94 87 79 76 72 70 71 67 62 60 60 61 62 65 66 64 53 43 39 31 14 5 7 9 11 12 12 16 12 1 359 354 342 339 350 0 359 349 340 339 335 323 316 313 305 296 286 278 273 270 270 273 271 268 266 259 252 254 250 237 226 222 220 217 216 216 217 214 206 200 199 199 197 192 185 192 214 232 241 245 246 244
94 88 83 80 74 68 66 65 64 66 65 62 64 63 59 57 56 53 51 48 40 31 24 18 17 21 26 24 14 12 32 40 32 23 19 11 12 19 15 4 355 349 347 341 332 327 328 324 317 310 298 287 276 269 269 271 272 270 263 257 256 247 232 224 221 219 216 216 216 209 199 192 192 191 182 173 176 194 213 226 237 248 257 259 248
105 105 92 82 74 65 59 57 58 63 63 63 66 66 58 52 50 44 38 39 39 32 25 22 20 21 28 29 20 10 25 35 34 33 30 27 27 26 18 10 6 360 353 349 344 344 344 335 327 324 319 308 294 276 265 263 272 274 268 260 254 241 226 217 215 214 216 216 208 191 180 175 172 164 162 175 201 217 227 234 235 246 271 297 301
98 103 97 87 80 70 61 55 52 56 62 63 63 60 52 46 44 41 36 36 37 33 30 28 22 18 24 27 26 29 38 40 41 41 30 22 22 24 21 16 10 2 360 358 352 351 351 340 333 335 331 322 318 304 279 261 265 276 275 266 251 232 217 209 208 210 214 207 186 169 158 155 166 175 183 205 224 232 245 250 231 223 250 280 278
102 101 93 87 82 68 59 58 55 53 58 60 57 51 46 44 41 38 37 37 34 32 32 29 23 25 30 30 33 46 52 42 33 35 31 23 26 31 30 26 24 19 13 3 351 349 352 348 342 341 334 322 327 331 309 270 261 277 279 267 238 218 210 207 207 209 205 181 165 156 149 161 184 190 196 218 233 243 257 260 233 216 227 244 255
137 127 101 87 82 69 58 58 58 54 56 62 62 57 49 47 44 40 39 39 35 33 33 30 26 30 34 35 43 55 55 43 33 40 42 38 39 44 43 40 39 32 18 6 358 358 2 359 352 351 351 346 341 340 335 334 349 340 295 249 224 214 210 208 207 205 187 167 159 155 159 173 184 190 201 225 241 247 251 248 236 232 241 257 268
163 157 132 90 81 79 70 58 56 53 51 55 61 63 56 49 46 44 44 45 44 39 36 36 36 38 43 51 56 56 51 42 43 54 60 62 62 63 63 59 56 51 44 43 46 44 34 22 9 1 2 1 354 345 340 336 1 13 323 257 225 216 215 215 210 194 169 161 160 166 176 184 194 208 224 242 254 255 244 235 230 235 246 256 268
171 174 173 159 129 110 88 67 65 65 52 42 50 61 62 58 53 47 46 50 51 46 43 44 46 52 61 63 60 57 58 60 61 65 71 75 75 74 71 69 67 65 63 64 66 68 68 65 60 54 47 41 34 24 15 11 31 67 60 80 159 195 213 213 201 177 163 163 168 176 185 195 207 223 241 254 247 237 237 231 223 232 249 253 261
173 180 179 168 161 144 105 93 82 50 29 26 45 60 61 61 60 54 50 52 52 50 51 52 52 57 63 62 60 67 75 77 75 76 80 81 81 79 75 72 70 68 65 65 66 67 69 70 69 68 67 65 64 63 60 56 59 65 70 79 97 119 148 167 167 162 162 170 177 182 192 205 213 220 246 257 239 225 227 230 222 227 245 255 265
177 183 186 180 181 192 183 154 53 22 21 30 52 59 55 58 64 60 56 59 60 56 55 56 58 61 61 61 69 79 82 81 78 81 85 86 86 84 79 74 72 69 66 63 61 60 62 64 64 64 65 66 66 68 68 66 67 70 75 83 97 112 125 139 148 156 164 172 179 185 199 214 217 211 227 244 240 218 210 231 241 239 244 255 267
187 191 195 191 192 203 210 222 276 1 21 42 63 54 47 53 65 62 54 55 62 66 59 55 59 63 64 66 72 78 83 84 83 83 85 85 84 81 77 72 70 67 63 60 58 58 59 62 63 62 63 65 66 67 69 71 73 77 83 91 101 112 124 135 145 156 166 175 182 193 202 212 219 219 219 225 230 213 205 216 225 234 250 262 270
189 198 203 200 204 214 220 230 256 281 306 354 44 46 48 55 59 58 43 38 45 62 67 58 53 57 63 68 69 69 76 85 90 90 91 89 85 80 76 73 70 65 60 58 59 60 62 63 63 61 60 60 60 61 64 67 71 77 84 93 102 113 127 142 152 163 178 185 191 203 208 208 219 229 227 219 219 228 228 226 233 253 267 266 267
188 201 207 207 216 232 242 251 266 276 276 270 305 342 12 44 50 60 60 47 49 60 63 58 61 62 59 63 68 66 68 78 86 91 94 94 90 85 79 72 67 63 58 53 51 52 54 53 52 50 48 47 46 47 50 54 59 66 74 84 100 117 136 156 171 192 216 223 223 226 226 220 219 227 233 228 221 225 231 237 254 274 279 274 272
199 207 215 220 230 239 242 245 259 270 264 257 280 310 326 19 46 62 109 128 108 82 64 59 66 68 62 60 65 69 70 70 71 76 85 93 95 91 80 67 57 55 53 49 40 35 32 32 32 31 27 25 25 25 30 33 31 28 33 41 50 173 224 245 253 253 254 253 249 243 240 236 233 234 238 240 239 240 238 237 243 262 277 278 272
215 222 228 232 237 241 238 236 241 247 250 251 256 260 255 247 247 34 151 166 158 134 98 83 71 70 77 76 70 67 71 72 65 60 68 85 98 98 83 69 54 39 30 24 18 13 10 8 6 3 1 4 10 14 18 19 14 4 356 344 321 292 270 260 257 255 253 251 249 246 244 243 242 239 239 243 247 252 258 265 270 274 276 275 271
226 231 233 236 241 240 239 241 244 243 243 243 239 241 245 236 216 222 224 189 170 169 179 159 105 82 83 90 84 79 77 73 67 64 60 61 59 270 249 222 278 312 327 339 348 355 359 356 349 348 356 8 15 15 10 3 354 342 331 321 310 299 290 282 274 267 262 255 251 248 245 240 237 237 239 243 250 256 263 271 277 276 270 267 268